Regional Weather Roundup
Issued by NWS

Home | Current Version | Previous Version | Text Only | Print | Product List | Glossary On
Versions: 1 2 3 4 5 6 7 8 9 10 11 12 13 14 15 16 17 18 19 20 21 22 23 24 25 26 27 28 29 30 31 32 33 34 35 36 37 38 39 40 41 42 43 44 45 46 47 48 49 50
000
ASUS44 KFWD 231803
RWRTX
NORTH TEXAS HOURLY WEATHER ROUNDUP
NATIONAL WEATHER SERVICE FORT WORTH TX
100 PM CDT WED AUG 23 2017

NOTE: "FAIR" INDICATES FEW OR NO CLOUDS BELOW 12,000 FEET WITH NO
SIGNIFICANT WEATHER AND/OR OBSTRUCTIONS TO VISIBILITY.

TXZ118-119-231900-
DALLAS/FORT WORTH METROPLEX

CITY           SKY/WX    TMP DP  RH WIND       PRES   REMARKS
DFW AIRPORT    CLOUDY    86  68  54 CALM      30.01F
6HR MIN TEMP:  76; 6HR MAX TEMP:  88; 6HR PCP: TRACE;

DALLAS LOVE    PTSUNNY   86  69  56 E3        30.01F HX  90
6HR MIN TEMP:  78; 6HR MAX TEMP:  86;

FTW MEACHAM    CLOUDY    85  72  65 CALM      30.02F HX  91
6HR MIN TEMP:  75; 6HR MAX TEMP:  86; 6HR PCP:  0.32;

DAL-EXECUTIVE  CLOUDY    85  70  60 CALM      30.01F
6HR MIN TEMP:  78; 6HR MAX TEMP:  85;

FTW-ALLIANCE   CLOUDY    84  70  62 NW5       30.03F
6HR MIN TEMP:  73; 6HR MAX TEMP:  86; 6HR PCP:  0.06;

FTW-NAS-JRB    MOSUNNY   86  72  62 VRB3      30.03F HX  92
6HR MIN TEMP:  75; 6HR MAX TEMP:  86; 6HR PCP:  0.19;

FTW-SPINKS     MOSUNNY   84  72  65 CALM      30.04F
ARLINGTON      CLOUDY    85  71  63 VRB3      30.02F HX  90
6HR MIN TEMP:  77; 6HR MAX TEMP:  86; 6HR PCP: TRACE;

GRAND PRAIRIE  SUNNY     84  70  61 CALM      30.03F
ADDISON        PTSUNNY   84  68  58 CALM      30.03F
MESQUITE       SUNNY     84  70  61 CALM      30.01F
LANCASTER      CLOUDY    85  69  57 NE7       30.02F
6HR MIN TEMP:  76; 6HR MAX TEMP:  85;

$$

TXZ091>094-102>105-117-120-121-131>134-231900-
NORTH CENTRAL TEXAS

CITY           SKY/WX    TMP DP  RH WIND       PRES   REMARKS
SHRMAN/DENISON PTSUNNY   78  71  77 CALM      30.05F
6HR MIN TEMP:  71; 6HR MAX TEMP:  79; 6HR PCP:  0.01;

GAINESVILLE    CLOUDY    82  71  70 N3        30.06F
6HR MIN TEMP:  72; 6HR MAX TEMP:  82;

BOWIE          CLOUDY    80  71  73 CALM      30.06F
6HR MIN TEMP:  71; 6HR MAX TEMP:  80;

BRIDGEPORT     MOSUNNY   82  70  68 CALM      30.07F
6HR MIN TEMP:  72; 6HR MAX TEMP:  82;

DECATUR        PTSUNNY   82  71  69 CALM        N/A
6HR MIN TEMP:  71; 6HR MAX TEMP:  82;

DENTON         MOSUNNY   84  72  67 CALM      30.03F
6HR MIN TEMP:  73; 6HR MAX TEMP:  85; 6HR PCP: TRACE;

MCKINNEY       CLOUDY    82  74  76 CALM      30.02F
6HR MIN TEMP:  71; 6HR MAX TEMP:  82; 6HR PCP:  0.01;

BONHAM         CLOUDY    79  72  78 E3        30.03F
ROCKWALL       CLOUDY    85  70  61 NE3       30.02F
6HR MIN TEMP:  74; 6HR MAX TEMP:  85;

TERRELL        CLOUDY    86  69  56 NE9       30.01F HX  90
6HR MIN TEMP:  75; 6HR MAX TEMP:  87;

WAXAHACHIE     CLOUDY    84  71  63 N7        30.03F
6HR MIN TEMP:  75; 6HR MAX TEMP:  84;

CLEBURNE       CLOUDY    84  73  70 N8        30.04F HX  91
GRANBURY       CLOUDY    81  73  76 NW3       30.05F
6HR MIN TEMP:  74; 6HR MAX TEMP:  81; 6HR PCP:  0.28;

$$

TXZ083>090-098>101-113>116-127>130-139>142-154-155-231900-
WESTERN NORTH TEXAS

CITY           SKY/WX    TMP DP  RH WIND       PRES   REMARKS
WICHITA FALLS  CLOUDY    82  69  64 NE3       30.06F
6HR MIN TEMP:  72; 6HR MAX TEMP:  83;

WF-KICKAPOO    CLOUDY    81  71  71 N5        30.08F
6HR MIN TEMP:  72; 6HR MAX TEMP:  82;

VERNON         CLOUDY    82  65  56 CALM      30.09F
6HR MIN TEMP:  69; 6HR MAX TEMP:  82;

ABILENE        MOSUNNY   84  69  60 VRB3      30.08F
6HR MIN TEMP:  72; 6HR MAX TEMP:  85;

ABILENE-DYESS  MOSUNNY   83  69  62 E6        30.07F
6HR MIN TEMP:  72; 6HR MAX TEMP:  84;

BRECKENRIDGE   CLOUDY    82  69  66 N3        30.07F
6HR MIN TEMP:  74; 6HR MAX TEMP:  82;

CISCO          CLOUDY    84  70  61 SE10      30.09F
EASTLAND       CLOUDY    80  71  72 E6        30.07F
6HR MIN TEMP:  72; 6HR MAX TEMP:  81;

RANGER         LGT RAIN  76  71  86 N5        30.08F
6HR MIN TEMP:  71; 6HR MAX TEMP:  94;

MINERAL WELLS  PTSUNNY   83  71  67 NW7       30.04F
6HR MIN TEMP:  72; 6HR MAX TEMP:  84; 6HR PCP:  0.29;

STEPHENVILLE   CLOUDY    78  71  78 CALM      30.09F
6HR MIN TEMP:  72; 6HR MAX TEMP:  79; 6HR PCP:  0.09;

COMANCHE       CLOUDY    85  73  68 E8        30.07S HX  91
6HR MIN TEMP:  72; 6HR MAX TEMP:  85; 6HR PCP:  0.41;

BROWNWOOD      CLOUDY    84  68  58 CALM      30.06F
COLEMAN        MOSUNNY   86  67  52 SE5       30.07F
6HR MIN TEMP:  74; 6HR MAX TEMP:  86;

$$

TXZ143>147-156>162-174-175-231900-
CENTRAL TEXAS

CITY           SKY/WX    TMP DP  RH WIND       PRES   REMARKS
WACO           SUNNY     91  72  53 NE8       29.99F HX  98
6HR MIN TEMP:  74; 6HR MAX TEMP:  92;

WACO-TSTC      MOSUNNY   90  72  55 N7        29.99F HX  96
WACO-MCGREGOR  MOSUNNY   90  72  55 NE10      30.00F HX  97
6HR MIN TEMP:  75; 6HR MAX TEMP:  91;

HILLSBORO      CLOUDY    88  71  56 NE7       30.01S HX  94
6HR MIN TEMP:  77; 6HR MAX TEMP:  89;

CORSICANA      MOSUNNY   91  74  57 N8        30.00F HX 100
6HR MIN TEMP:  77; 6HR MAX TEMP:  91;

MEXIA          MOSUNNY   93  71  48 NE3       29.98F HX  99
6HR MIN TEMP:  74; 6HR MAX TEMP:  93;

HEARNE         MOSUNNY   93  69  45 CALM      29.97F HX  98
6HR MIN TEMP:  73; 6HR MAX TEMP:  94;

CAMERON        MOSUNNY   96  69  41 CALM      29.96F HX 101
6HR MIN TEMP:  75; 6HR MAX TEMP:  96;

TEMPLE         MOSUNNY   93  71  48 N7        29.99F HX 100
6HR MIN TEMP:  73; 6HR MAX TEMP:  94;

KILLEEN        MOSUNNY   91  70  49 NW8       29.99F HX  97
6HR MIN TEMP:  74; 6HR MAX TEMP:  91;

KILLEEN-SKYLRK SUNNY     91  72  53 VRB7      29.99F HX  98
6HR MIN TEMP:  78; 6HR MAX TEMP:  91;

FORT HOOD      SUNNY     90  70  51 NE6       29.97F HX  95
6HR MIN TEMP:  75; 6HR MAX TEMP:  90;

GATESVILLE     MOSUNNY   90  70  51 VRB7      30.03F HX  95
HAMILTON       RAIN      81  71  70 E3        30.06F
6HR MIN TEMP:  75; 6HR MAX TEMP:  83;

LAMPASAS       MOSUNNY   83  76  80 SE3       30.01F HX  90
6HR MIN TEMP:  76; 6HR MAX TEMP:  91; 6HR PCP:  0.02;

$$

TXZ095>097-106>112-122>126-135>138-148>153-164>167-231900-
EAST TEXAS

CITY           SKY/WX    TMP DP  RH WIND       PRES   REMARKS
PARIS          CLOUDY    82  72  71 N7        30.03S
6HR MIN TEMP:  72; 6HR MAX TEMP:  83;

SULPHUR SPRNGS CLOUDY    85  71  63 CALM      30.03F HX  90
MOUNT PLEASANT CLOUDY    87  74  64 CALM      30.01F HX  95
6HR MIN TEMP:  74; 6HR MAX TEMP:  88;

GILMER         CLOUDY    86  74  67 CALM      29.99F HX  94
6HR MIN TEMP:  74; 6HR MAX TEMP:  87;

MINEOLA        CLOUDY    84  75  74 S3        30.00F HX  92
TYLER          CLOUDY    85  75  72 VRB3      29.99F HX  93
6HR MIN TEMP:  75; 6HR MAX TEMP:  85;

LONGVIEW       MOSUNNY   91  77  63 NE5       29.97F HX 104
6HR MIN TEMP:  75; 6HR MAX TEMP:  91;

MARSHALL         N/A     90  74  60 E3        30.00F HX  99
6HR MIN TEMP:  73; 6HR MAX TEMP:  90;

ATHENS         MOSUNNY   86  72  62 NE5       29.98F HX  92
PALESTINE      MOSUNNY   91  72  53 E3        29.99F HX  99
JACKSONVILLE   MOSUNNY   89  74  62 N5        30.02F HX  97
HENDERSON      MOSUNNY   91  74  58 N5        29.99F HX 100
6HR MIN TEMP:  71; 6HR MAX TEMP:  91;

NACOGDOCHES    MOSUNNY   91  73  55 VRB3      29.97F HX  99
6HR MIN TEMP:  71; 6HR MAX TEMP:  92;

LUFKIN         MOSUNNY   91  71  51 MISG      29.96F HX  97
6HR MIN TEMP:  73; 6HR MAX TEMP:  92;

$$

SUPPLEMENTAL OBSERVATIONS (NWS FORT WORTH AREA)

CITY           SKY/WX    TMP DP  RH WIND       PRES   REMARKS
$$

SUPPLEMENTAL OBSERVATIONS (NWS NORMAN AREA)

CITY           SKY/WX    TMP DP  RH WIND       PRES   REMARKS
GOODLETT         N/A     78  67  67 NE5       30.12F
ODELL            N/A     80  71  72 N9        30.11S
CROWELL          N/A     80  69  69 NE5       30.12F
KNOX CITY        N/A     76  68  76 NE5       30.12F
SEYMOUR          N



USA.gov is the U.S. government's official web portal to all federal, state and local government web resources and services.